Regional Weather Roundup
Issued by NWS

Home | Current Version | Previous Version | Graphics & Text | Print | Product List | Glossary On
Versions: 1 2 3 4 5 6 7 8 9 10 11 12 13 14 15 16 17 18 19 20 21 22 23 24 25 26 27 28 29 30 31 32 33 34 35 36 37 38 39 40 41 42 43 44 45 46 47 48 49 50
000
ASUS43 KOAX 240310
RWRNE

WEATHER ROUNDUP FOR NEBRASKA
NATIONAL WEATHER SERVICE OMAHA NE
1000 PM CDT WED JUL 23 2014

NOTES: SATELLITE DATA IS BEING USED TO AUGMENT CLOUD COVER ABOVE
       12000 FEET.
       "FAIR" INDICATES FEW OR NO CLOUDS BELOW 12,000 FEET WITH NO
       SIGNIFICANT WEATHER AND/OR OBSTRUCTIONS TO VISIBILITY.

  * THESE STATIONS DO NOT REPORT WEATHER SUCH AS RAIN...SNOW OR FOG.

NEZ001>004-019>022-054>056-240400-
NEBRASKA PANHANDLE

CITY           SKY/WX    TMP DP  RH WIND       PRES   REMARKS
SCOTTSBLUFF    MOCLDY    82  67  60 E9        30.09F
ALLIANCE       MOCLDY    78  64  61 SE20      30.12S
CHADRON        PTCLDY    83  67  58 SE22      30.02F
KIMBALL        PTCLDY    79  54  41 SW9       30.18R
SIDNEY         PTCLDY    83  61  47 S15       30.17R
$$

NEZ057>060-069>072-079>082-240400-
SOUTHWEST NEBRASKA

CITY           SKY/WX    TMP DP  RH WIND       PRES   REMARKS
NORTH PLATTE   CLEAR     70  62  76 E10       30.16F
IMPERIAL       CLEAR     72  65  78 SE15      30.16R
LEXINGTON      CLEAR     73  63  69 SE9       30.18S
MCCOOK         CLEAR     72  65  78 E9        30.16S
OGALLALA       MOCLDY    72  65  80 E9        30.16R
$$

NEZ005>010-023>029-035>040-094-240400-
NORTH CENTRAL NEBRASKA

CITY           SKY/WX    TMP DP  RH WIND       PRES   REMARKS
VALENTINE      CLEAR     76  57  51 SE12      30.13S
AINSWORTH      CLEAR     71  56  58 SE10      30.16S
BROKEN BOW     CLEAR     70  62  76 SE7       30.18S
O`NEILL        CLEAR     72  58  61 SE6       30.18R
ORD            CLEAR     70  61  73 SE5       30.17R
THEDFORD       CLEAR     74  61  62 SE13      30.17S
$$

NEZ041-046>049-061>064-073>077-083>087-240400-
SOUTH CENTRAL NEBRASKA

CITY           SKY/WX    TMP DP  RH WIND       PRES   REMARKS
GRAND ISLAND   CLEAR     70  62  76 E5        30.18R
AURORA         CLEAR     70  64  83 E3        30.18R
HASTINGS       CLEAR     73  58  59 E6        30.18S
HEBRON         CLEAR     67  61  79 CALM      30.16S
HOLDREGE       CLEAR     69  63  81 E8        30.17S
KEARNEY *      CLEAR     70  63  78 E7        30.18S
YORK           PTCLDY    70  64  83 E3        30.18R
$$

NEZ011>018-030>034-042>045-240400-
NORTHEAST NEBRASKA

CITY           SKY/WX    TMP DP  RH WIND       PRES   REMARKS
NORFOLK        CLEAR     71  59  65 E3        30.18R
ALBION         CLEAR     67  60  78 SE5       30.18R
BLAIR          CLEAR     72  60  66 NE3       30.17R
COLUMBUS *     CLEAR     66  61  82 NE3       30.17R
FREMONT        CLEAR     75  61  62 E5        30.17R
TEKAMAH        CLEAR     71  63  75 E5        30.16R
WAYNE          CLEAR     67  62  84 CALM      30.17S
$$

NEZ050>053-065>068-078-088>093-240400-
SOUTHEAST NEBRASKA

CITY           SKY/WX    TMP DP  RH WIND       PRES   REMARKS
LINCOLN        CLEAR     74  61  63 E5        30.16R
OMAHA EPPLEY   PTCLDY    75  62  64 E6        30.15R
BEATRICE       CLEAR     72  62  71 E5        30.16R
FALLS CITY     CLEAR     73  66  78 E5        30.13S
NEBRASKA CITY  CLEAR     72  61  68 CALM      30.16R
PLATTSMOUTH    CLEAR     73  61  66 NE3       30.16R
$$

NEZ044-045-051>053-067-240400-
OMAHA AREA

CITY           SKY/WX    TMP DP  RH WIND       PRES   REMARKS
OMAHA EPPLEY   PTCLDY    75  62  64 E6        30.15R
BLAIR          CLEAR     72  60  66 NE3       30.17R
FREMONT        CLEAR     75  61  62 E5        30.17R
MILLARD        CLEAR     77  62  60 CALM      30.15R
OFFUTT AFB     CLEAR     71  65  81 CALM      30.14S
PLATTSMOUTH    CLEAR     73  61  66 NE3       30.16R
WAHOO          FAIR      70  62  75 NE5       30.16R
$$



USA.gov is the U.S. government's official web portal to all federal, state and local government web resources and services.